VOZ472 YBBN-YPPH

Flight info

Callsign VOZ472
Flight time N/A
Altitude 34000
Route SANEG Q4 PAVBI Q16 LOSPI/N0460F380 DCT KADUV DCT WHA J21 MUBID Q10 MALUP Q158 KABLI
Aircraft B738/M-SAE3DGHIM1RWZ/LB1

Departure

Time 2026-05-06 08:50
Airport Brisbane International Airport (YBBN)

Arrival

Time N/A
Airport Perth International Airport (YPPH)
Time Latitude Longitude Altitude Speed Heading
2026-05-06 08:18 -27.38716 153.11949 12 ft 0 kts 336°
2026-05-06 08:21 -27.38717 153.11949 17 ft 0 kts 336°
2026-05-06 08:41 -27.38738 153.11961 0 ft 4 kts 326°
2026-05-06 08:41 -27.38761 153.11988 23 ft 4 kts 287°
2026-05-06 08:42 -27.38763 153.12007 30 ft 4 kts 256°
2026-05-06 08:42 -27.38759 153.12035 25 ft 4 kts 275°
2026-05-06 08:42 -27.38766 153.12064 17 ft 4 kts 302°
2026-05-06 08:42 -27.38783 153.12086 17 ft 4 kts 320°
2026-05-06 08:43 -27.38800 153.12101 19 ft 0 kts 321°
2026-05-06 08:46 -27.38787 153.12093 17 ft 7 kts 342°
2026-05-06 08:46 -27.38765 153.12148 17 ft 10 kts 100°
2026-05-06 08:46 -27.38782 153.12222 17 ft 10 kts 107°
2026-05-06 08:46 -27.38787 153.12288 17 ft 9 kts 71°
2026-05-06 08:47 -27.38729 153.12344 18 ft 16 kts 25°
2026-05-06 08:47 -27.38618 153.12408 17 ft 19 kts 27°
2026-05-06 08:47 -27.38502 153.12473 17 ft 18 kts 27°
2026-05-06 08:47 -27.38390 153.12538 17 ft 18 kts 27°
2026-05-06 08:48 -27.38282 153.12600 17 ft 17 kts 27°
2026-05-06 08:48 -27.38171 153.12663 17 ft 19 kts 27°
2026-05-06 08:48 -27.38052 153.12731 17 ft 16 kts 27°
2026-05-06 08:48 -27.37998 153.12824 17 ft 15 kts 99°
2026-05-06 08:49 -27.38042 153.12930 18 ft 15 kts 118°
2026-05-06 08:49 -27.38087 153.13029 20 ft 14 kts 117°
2026-05-06 08:49 -27.38126 153.13052 20 ft 6 kts 197°
2026-05-06 08:49 -27.38151 153.13039 21 ft 7 kts 207°
2026-05-06 08:50 -27.38337 153.12934 22 ft 64 kts 206°
2026-05-06 08:50 -27.38941 153.12589 19 ft 128 kts 207°
2026-05-06 08:50 -27.39899 153.12043 86 ft 174 kts 206°
2026-05-06 08:50 -27.40994 153.11399 751 ft 177 kts 205°
2026-05-06 08:51 -27.42140 153.10933 1473 ft 178 kts 180°
2026-05-06 08:51 -27.43376 153.11330 1753 ft 200 kts 150°
2026-05-06 08:51 -27.44647 153.12077 2251 ft 203 kts 152°
2026-05-06 08:51 -27.45865 153.12774 3028 ft 196 kts 152°
2026-05-06 08:52 -27.47095 153.13479 3558 ft 200 kts 152°
2026-05-06 08:52 -27.48391 153.14223 3790 ft 220 kts 152°
2026-05-06 08:52 -27.49867 153.14798 4155 ft 232 kts 176°
2026-05-06 08:52 -27.51516 153.14594 4566 ft 243 kts 191°
2026-05-06 08:53 -27.53163 153.14174 5100 ft 248 kts 193°
2026-05-06 08:53 -27.54865 153.13723 5608 ft 259 kts 193°
2026-05-06 08:53 -27.56692 153.13147 5813 ft 284 kts 199°
2026-05-06 08:53 -27.58630 153.12371 6134 ft 303 kts 201°
2026-05-06 08:54 -27.60646 153.11549 6771 ft 310 kts 200°
2026-05-06 08:54 -27.62665 153.10753 7501 ft 312 kts 199°
2026-05-06 08:54 -27.64758 153.10034 8241 ft 315 kts 197°
2026-05-06 08:54 -27.66884 153.09341 8965 ft 319 kts 197°
2026-05-06 08:55 -27.69035 153.08643 9686 ft 322 kts 197°
2026-05-06 08:55 -27.71208 153.07931 10371 ft 326 kts 198°
2026-05-06 08:55 -27.73367 153.07216 10993 ft 330 kts 198°
2026-05-06 08:55 -27.75593 153.06475 11618 ft 334 kts 198°
2026-05-06 08:56 -27.77844 153.05723 12249 ft 338 kts 199°
2026-05-06 08:56 -27.80127 153.04960 12875 ft 343 kts 199°
2026-05-06 08:56 -27.82299 153.03931 13457 ft 343 kts 217°
2026-05-06 08:56 -27.84147 153.02224 14099 ft 343 kts 224°
2026-05-06 08:57 -27.85941 153.00434 14669 ft 346 kts 225°
2026-05-06 08:57 -27.87751 152.98608 15263 ft 348 kts 225°
2026-05-06 08:57 -27.89551 152.96796 15864 ft 351 kts 225°
2026-05-06 08:57 -27.91389 152.94954 16430 ft 354 kts 225°
2026-05-06 08:58 -27.93248 152.93098 17001 ft 357 kts 225°
2026-05-06 08:58 -27.95124 152.91231 17558 ft 361 kts 225°
2026-05-06 08:58 -27.97017 152.89349 18065 ft 364 kts 225°
2026-05-06 08:58 -27.98906 152.87473 18068 ft 365 kts 225°
2026-05-06 08:59 -28.00813 152.85582 18111 ft 364 kts 225°
2026-05-06 08:59 -28.02722 152.83689 18094 ft 364 kts 225°
2026-05-06 08:59 -28.04630 152.81795 18113 ft 364 kts 225°
2026-05-06 08:59 -28.06539 152.79899 18112 ft 364 kts 225°
2026-05-06 09:00 -28.08422 152.78027 18120 ft 364 kts 225°
2026-05-06 09:00 -28.10326 152.76133 18122 ft 364 kts 225°
2026-05-06 09:00 -28.12236 152.74232 18125 ft 364 kts 225°
2026-05-06 09:00 -28.14141 152.72336 18124 ft 365 kts 225°
2026-05-06 09:01 -28.16051 152.70433 18122 ft 365 kts 225°
2026-05-06 09:01 -28.17936 152.68555 18125 ft 365 kts 225°
2026-05-06 09:01 -28.19845 152.66652 18125 ft 364 kts 225°
2026-05-06 09:01 -28.21751 152.64751 18132 ft 364 kts 225°
2026-05-06 09:02 -28.23656 152.62850 18131 ft 365 kts 225°
2026-05-06 09:02 -28.25569 152.60938 18131 ft 365 kts 225°
2026-05-06 09:02 -28.27476 152.59033 18124 ft 365 kts 225°
2026-05-06 09:02 -28.29356 152.57154 18126 ft 365 kts 225°
2026-05-06 09:03 -28.31178 152.55333 18110 ft 364 kts 225°
2026-05-06 09:03 -28.33080 152.53430 18132 ft 363 kts 226°
2026-05-06 09:03 -28.34953 152.51555 18127 ft 363 kts 226°
2026-05-06 09:03 -28.36849 152.49656 18134 ft 362 kts 226°
2026-05-06 09:04 -28.38640 152.47666 18126 ft 359 kts 234°
2026-05-06 09:04 -28.40208 152.45457 18183 ft 361 kts 236°
2026-05-06 09:04 -28.41764 152.43185 18597 ft 365 kts 236°
2026-05-06 09:04 -28.43296 152.40936 19226 ft 362 kts 236°
2026-05-06 09:05 -28.44843 152.38671 19819 ft 362 kts 237°
2026-05-06 09:05 -28.46394 152.36407 20326 ft 365 kts 237°
2026-05-06 09:05 -28.47965 152.34117 20809 ft 367 kts 237°
2026-05-06 09:05 -28.49546 152.31819 21319 ft 369 kts 237°
2026-05-06 09:06 -28.51133 152.29517 21830 ft 371 kts 237°
2026-05-06 09:06 -28.52731 152.27198 22296 ft 373 kts 237°
2026-05-06 09:06 -28.54317 152.24896 22751 ft 375 kts 237°
2026-05-06 09:06 -28.55934 152.22549 23237 ft 377 kts 237°
2026-05-06 09:07 -28.57557 152.20192 23673 ft 379 kts 237°
2026-05-06 09:07 -28.59193 152.17816 24057 ft 381 kts 237°
2026-05-06 09:07 -28.60828 152.15439 24467 ft 382 kts 238°
2026-05-06 09:07 -28.62469 152.13053 24849 ft 383 kts 238°
2026-05-06 09:08 -28.64094 152.10688 25241 ft 384 kts 238°
2026-05-06 09:08 -28.65751 152.08276 25630 ft 386 kts 238°
2026-05-06 09:08 -28.67408 152.05861 25998 ft 387 kts 238°
2026-05-06 09:08 -28.69072 152.03435 26366 ft 389 kts 238°
2026-05-06 09:09 -28.70737 152.01006 26723 ft 390 kts 238°
2026-05-06 09:09 -28.72415 151.98557 27075 ft 392 kts 238°
2026-05-06 09:09 -28.74080 151.96125 27405 ft 394 kts 238°
2026-05-06 09:09 -28.75769 151.93658 27737 ft 395 kts 238°
2026-05-06 09:10 -28.77463 151.91181 28067 ft 397 kts 238°
2026-05-06 09:10 -28.79166 151.88689 28407 ft 398 kts 238°
2026-05-06 09:10 -28.80876 151.86186 28733 ft 400 kts 238°
2026-05-06 09:10 -28.82597 151.83664 29048 ft 402 kts 239°
2026-05-06 09:11 -28.84298 151.81171 29360 ft 403 kts 239°
2026-05-06 09:11 -28.86029 151.78634 29664 ft 405 kts 239°
2026-05-06 09:11 -28.87764 151.76087 29949 ft 406 kts 239°
2026-05-06 09:11 -28.89508 151.73528 30249 ft 407 kts 239°
2026-05-06 09:12 -28.91252 151.70966 30487 ft 409 kts 239°
2026-05-06 09:12 -28.92981 151.68424 30729 ft 410 kts 239°
2026-05-06 09:12 -28.94717 151.65840 30956 ft 410 kts 240°
2026-05-06 09:12 -28.96438 151.63232 31180 ft 411 kts 240°
2026-05-06 09:13 -28.98154 151.60611 31459 ft 410 kts 240°
2026-05-06 09:13 -28.99863 151.57999 31702 ft 411 kts 240°
2026-05-06 09:13 -29.01559 151.55407 31909 ft 412 kts 240°
2026-05-06 09:13 -29.03279 151.52782 32124 ft 413 kts 240°
2026-05-06 09:14 -29.05006 151.50148 32324 ft 414 kts 240°
2026-05-06 09:14 -29.06742 151.47499 32488 ft 416 kts 240°
2026-05-06 09:14 -29.08486 151.44838 32678 ft 417 kts 240°
2026-05-06 09:14 -29.10199 151.42224 32947 ft 415 kts 240°
2026-05-06 09:15 -29.11928 151.39587 33293 ft 413 kts 241°
2026-05-06 09:15 -29.13647 151.36961 33590 ft 411 kts 241°
2026-05-06 09:15 -29.15358 151.34343 33815 ft 411 kts 241°
2026-05-06 09:15 -29.17073 151.31716 34055 ft 411 kts 241°
2026-05-06 09:16 -29.18789 151.29086 34086 ft 412 kts 241°
2026-05-06 09:16 -29.22202 151.23854 34096 ft 411 kts 241°
2026-05-06 09:17 -29.25581 151.18578 34105 ft 409 kts 242°
2026-05-06 09:17 -29.28894 151.13334 34105 ft 408 kts 242°
2026-05-06 09:18 -29.32225 151.08060 34105 ft 408 kts 242°
2026-05-06 09:18 -29.35543 151.02810 34112 ft 408 kts 242°
2026-05-06 09:19 -29.38885 150.97518 34107 ft 409 kts 241°
2026-05-06 09:19 -29.42236 150.92207 34115 ft 411 kts 241°
2026-05-06 09:20 -29.45573 150.86910 34120 ft 412 kts 241°
2026-05-06 09:20 -29.48950 150.81543 34110 ft 414 kts 241°
2026-05-06 09:21 -29.52314 150.76191 34113 ft 415 kts 241°
2026-05-06 09:21 -29.55706 150.70788 34115 ft 417 kts 241°
2026-05-06 09:22 -29.59096 150.65378 34118 ft 417 kts 241°
2026-05-06 09:22 -29.62468 150.59992 34114 ft 418 kts 241°
2026-05-06 09:23 -29.65864 150.54559 34111 ft 418 kts 241°
2026-05-06 09:23 -29.69255 150.49121 34120 ft 418 kts 241°
2026-05-06 09:24 -29.72619 150.43717 34118 ft 417 kts 241°
2026-05-06 09:24 -29.76006 150.38268 34119 ft 417 kts 241°
2026-05-06 09:25 -29.79366 150.32856 34117 ft 416 kts 240°
2026-05-06 09:25 -29.82741 150.27413 34118 ft 416 kts 241°
2026-05-06 09:26 -29.86081 150.22017 34118 ft 416 kts 241°
2026-05-06 09:26 -29.89441 150.16585 34118 ft 416 kts 241°
2026-05-06 09:27 -29.92814 150.11126 34113 ft 417 kts 241°
2026-05-06 09:27 -29.96162 150.05701 34121 ft 417 kts 241°
2026-05-06 09:28 -29.99528 150.00238 34123 ft 418 kts 241°
2026-05-06 09:28 -30.02333 149.95680 34123 ft 419 kts 241°
2026-05-06 09:29 -30.05710 149.90186 34118 ft 420 kts 241°
2026-05-06 09:29 -30.09094 149.84672 34115 ft 420 kts 241°
2026-05-06 09:30 -30.13028 149.78254 34122 ft 421 kts 241°
2026-05-06 09:30 -30.15845 149.73652 34116 ft 421 kts 241°
2026-05-06 09:31 -30.19222 149.68129 34115 ft 420 kts 241°
2026-05-06 09:31 -30.22578 149.62631 34117 ft 420 kts 241°
2026-05-06 09:32 -30.25943 149.57112 34116 ft 419 kts 241°
2026-05-06 09:32 -30.29298 149.51601 34123 ft 418 kts 241°
2026-05-06 09:33 -30.32647 149.46093 34123 ft 418 kts 241°
2026-05-06 09:33 -30.35970 149.40619 34120 ft 417 kts 241°
2026-05-06 09:34 -30.39307 149.35115 34123 ft 417 kts 241°
2026-05-06 09:34 -30.42642 149.29607 34124 ft 416 kts 241°
2026-05-06 09:35 -30.45949 149.24137 34124 ft 416 kts 241°
2026-05-06 09:35 -30.49274 149.18629 34126 ft 416 kts 241°
2026-05-06 09:36 -30.52577 149.13151 34126 ft 416 kts 241°
2026-05-06 09:36 -30.55891 149.07646 34126 ft 416 kts 241°
2026-05-06 09:37 -30.59211 149.02124 34129 ft 417 kts 241°
2026-05-06 09:37 -30.62542 148.96575 34130 ft 418 kts 241°
2026-05-06 09:38 -30.65840 148.91075 34129 ft 418 kts 241°
2026-05-06 09:38 -30.69174 148.85507 34132 ft 419 kts 241°
2026-05-06 09:39 -30.72505 148.79936 34131 ft 419 kts 241°
2026-05-06 09:39 -30.75819 148.74387 34133 ft 419 kts 241°
2026-05-06 09:40 -30.79134 148.68828 34135 ft 420 kts 241°
2026-05-06 09:40 -30.84127 148.60439 34137 ft 420 kts 241°
2026-05-06 09:41 -30.87451 148.54844 34139 ft 420 kts 242°
2026-05-06 09:41 -30.90755 148.49274 34140 ft 419 kts 242°
2026-05-06 09:42 -30.94069 148.43680 34141 ft 419 kts 242°
2026-05-06 09:42 -30.97364 148.38110 34145 ft 418 kts 242°
2026-05-06 09:43 -31.00671 148.32512 34144 ft 418 kts 242°
2026-05-06 09:43 -31.03943 148.26963 34145 ft 417 kts 242°
2026-05-06 09:44 -31.07235 148.21374 34153 ft 417 kts 242°
2026-05-06 09:44 -31.10497 148.15827 34151 ft 416 kts 242°
2026-05-06 09:45 -31.13700 148.10197 34144 ft 412 kts 247°
2026-05-06 09:45 -31.15901 148.04118 34151 ft 405 kts 255°
2026-05-06 09:46 -31.17895 147.97996 34156 ft 405 kts 255°
2026-05-06 09:46 -31.19911 147.91845 34155 ft 405 kts 254°
2026-05-06 09:47 -31.21926 147.85734 34164 ft 405 kts 254°
2026-05-06 09:47 -31.23958 147.79581 34162 ft 405 kts 254°
2026-05-06 09:48 -31.25992 147.73417 34161 ft 406 kts 254°
2026-05-06 09:48 -31.28009 147.67291 34164 ft 406 kts 254°
2026-05-06 09:49 -31.30039 147.61113 34168 ft 406 kts 255°
2026-05-06 09:49 -31.32051 147.54980 34168 ft 405 kts 255°
2026-05-06 09:50 -31.34072 147.48807 34167 ft 405 kts 255°
2026-05-06 09:50 -31.36077 147.42673 34171 ft 405 kts 255°
2026-05-06 09:51 -31.38089 147.36504 34170 ft 404 kts 255°
2026-05-06 09:51 -31.40083 147.30380 34174 ft 404 kts 255°
2026-05-06 09:52 -31.42083 147.24224 34175 ft 404 kts 255°
2026-05-06 09:52 -31.44065 147.18114 34177 ft 403 kts 255°
2026-05-06 09:53 -31.46056 147.11962 34177 ft 403 kts 255°
2026-05-06 09:53 -31.48039 147.05823 34179 ft 402 kts 255°
2026-05-06 09:54 -31.50007 146.99721 34186 ft 402 kts 255°
2026-05-06 09:54 -31.51985 146.93575 34186 ft 402 kts 255°
2026-05-06 09:55 -31.53959 146.87431 34185 ft 402 kts 255°
2026-05-06 09:55 -31.55924 146.81301 34184 ft 401 kts 255°
2026-05-06 09:56 -31.57875 146.75206 34191 ft 402 kts 255°
2026-05-06 09:56 -31.59836 146.69067 34187 ft 402 kts 255°
2026-05-06 09:57 -31.61788 146.62944 34193 ft 402 kts 255°
2026-05-06 09:57 -31.63749 146.56781 34194 ft 402 kts 255°
2026-05-06 09:58 -31.65694 146.50657 34190 ft 402 kts 255°
2026-05-06 09:58 -31.67650 146.44483 34196 ft 403 kts 255°
2026-05-06 09:59 -31.69592 146.38344 34198 ft 403 kts 255°
2026-05-06 09:59 -31.71545 146.32158 34200 ft 404 kts 255°
2026-05-06 10:00 -31.73502 146.25951 34197 ft 404 kts 255°
2026-05-06 10:00 -31.75444 146.19776 34195 ft 405 kts 255°
2026-05-06 10:01 -31.77394 146.13564 34201 ft 405 kts 255°
2026-05-06 10:01 -31.79344 146.07337 34203 ft 405 kts 255°
2026-05-06 10:02 -31.81281 146.01143 34201 ft 406 kts 255°
2026-05-06 10:02 -31.83225 145.94914 34203 ft 405 kts 255°
2026-05-06 10:03 -31.85167 145.88678 34207 ft 405 kts 255°
2026-05-06 10:03 -31.87088 145.82497 34212 ft 404 kts 255°
2026-05-06 10:04 -31.89020 145.76270 34210 ft 404 kts 255°
2026-05-06 10:04 -31.90943 145.70054 34206 ft 404 kts 255°
2026-05-06 10:05 -31.92867 145.63827 34214 ft 404 kts 255°
2026-05-06 10:05 -31.94780 145.57622 34215 ft 405 kts 255°
2026-05-06 10:06 -31.96709 145.51353 34213 ft 405 kts 255°
2026-05-06 10:06 -31.98621 145.45126 34207 ft 406 kts 255°
2026-05-06 10:07 -32.00542 145.38861 34211 ft 406 kts 255°
2026-05-06 10:07 -32.02454 145.32581 34209 ft 406 kts 256°
2026-05-06 10:08 -32.03685 145.26167 34207 ft 403 kts 263°
2026-05-06 10:08 -32.04722 145.19668 34209 ft 403 kts 263°
2026-05-06 10:09 -32.05767 145.13153 34217 ft 404 kts 263°
2026-05-06 10:09 -32.06817 145.06672 34216 ft 404 kts 262°
2026-05-06 10:10 -32.07877 145.00137 34207 ft 405 kts 262°
2026-05-06 10:10 -32.08933 144.93611 34219 ft 405 kts 262°
2026-05-06 10:11 -32.09988 144.87074 34211 ft 406 kts 262°
2026-05-06 10:11 -32.11036 144.80557 34218 ft 406 kts 262°
2026-05-06 10:12 -32.12087 144.74002 34217 ft 406 kts 262°
2026-05-06 10:12 -32.13130 144.67471 34215 ft 406 kts 262°
2026-05-06 10:13 -32.14174 144.60908 34225 ft 406 kts 262°
2026-05-06 10:13 -32.15213 144.54359 34215 ft 406 kts 262°
2026-05-06 10:14 -32.16243 144.47841 34218 ft 406 kts 262°
2026-05-06 10:14 -32.17279 144.41264 34210 ft 406 kts 262°
2026-05-06 10:15 -32.18310 144.34697 34217 ft 406 kts 262°
2026-05-06 10:15 -32.19329 144.28177 34228 ft 406 kts 262°
2026-05-06 10:16 -32.20355 144.21595 34214 ft 406 kts 262°
2026-05-06 10:16 -32.21375 144.15026 34216 ft 407 kts 262°
2026-05-06 10:17 -32.22387 144.08483 34217 ft 407 kts 262°
2026-05-06 10:17 -32.23403 144.01897 34227 ft 407 kts 262°
2026-05-06 10:18 -32.24245 143.96416 34216 ft 407 kts 262°
2026-05-06 10:18 -32.25255 143.89821 34212 ft 408 kts 262°
2026-05-06 10:19 -32.26428 143.82133 34226 ft 408 kts 262°
2026-05-06 10:19 -32.27264 143.76636 34214 ft 409 kts 262°
2026-05-06 10:20 -32.28267 143.70013 34223 ft 409 kts 262°
2026-05-06 10:20 -32.29265 143.63406 34218 ft 409 kts 262°
2026-05-06 10:21 -32.30263 143.56770 34217 ft 410 kts 262°
2026-05-06 10:21 -32.31259 143.50119 34216 ft 410 kts 262°
2026-05-06 10:22 -32.32249 143.43486 34222 ft 410 kts 262°
2026-05-06 10:22 -32.33239 143.36833 34222 ft 411 kts 262°
2026-05-06 10:23 -32.34220 143.30209 34225 ft 411 kts 262°
2026-05-06 10:23 -32.35205 143.23541 34221 ft 411 kts 262°
2026-05-06 10:24 -32.36185 143.16874 34225 ft 411 kts 262°
2026-05-06 10:24 -32.37159 143.10230 34224 ft 412 kts 262°
2026-05-06 10:25 -32.38135 143.03538 34226 ft 412 kts 262°
2026-05-06 10:25 -32.39107 142.96856 34218 ft 412 kts 262°
2026-05-06 10:26 -32.40070 142.90207 34226 ft 412 kts 262°
2026-05-06 10:26 -32.41036 142.83506 34223 ft 412 kts 262°
2026-05-06 10:27 -32.42000 142.76803 34228 ft 412 kts 262°
2026-05-06 10:27 -32.42954 142.70137 34222 ft 413 kts 262°
2026-05-06 10:28 -32.43909 142.63439 34225 ft 413 kts 262°
2026-05-06 10:28 -32.44862 142.56731 34220 ft 413 kts 262°
2026-05-06 10:29 -32.45806 142.50057 34236 ft 413 kts 262°
2026-05-06 10:29 -32.46753 142.43338 34232 ft 413 kts 262°
2026-05-06 10:30 -32.47698 142.36603 34228 ft 414 kts 262°
2026-05-06 10:30 -32.48640 142.29864 34223 ft 414 kts 262°
2026-05-06 10:31 -32.49572 142.23175 34234 ft 414 kts 262°
2026-05-06 10:31 -32.50507 142.16426 34229 ft 415 kts 262°
2026-05-06 10:32 -32.51441 142.09669 34238 ft 415 kts 262°
2026-05-06 10:32 -32.52370 142.02915 34236 ft 415 kts 262°
2026-05-06 10:33 -32.53291 141.96192 34236 ft 416 kts 262°
2026-05-06 10:33 -32.54215 141.89416 34242 ft 416 kts 262°
2026-05-06 10:34 -32.55138 141.82620 34234 ft 416 kts 262°
2026-05-06 10:34 -32.56052 141.75868 34232 ft 417 kts 262°
2026-05-06 10:35 -32.56968 141.69065 34240 ft 417 kts 262°
2026-05-06 10:35 -32.57882 141.62255 34237 ft 418 kts 262°
2026-05-06 10:36 -32.58785 141.55496 34242 ft 418 kts 262°
2026-05-06 10:36 -32.59691 141.48683 34237 ft 418 kts 262°
2026-05-06 10:37 -32.60597 141.41846 34242 ft 419 kts 262°
2026-05-06 10:37 -32.61498 141.35016 34241 ft 419 kts 262°
2026-05-06 10:38 -32.62390 141.28223 34251 ft 419 kts 262°
2026-05-06 10:38 -32.63285 141.21379 34246 ft 420 kts 262°
2026-05-06 10:39 -32.64169 141.14588 34294 ft 425 kts 262°
2026-05-06 10:39 -32.65073 141.07610 34614 ft 426 kts 262°
2026-05-06 10:40 -32.65516 141.04185 34908 ft 424 kts 262°
2026-05-06 10:40 -32.65963 141.00721 35221 ft 421 kts 262°
2026-05-06 10:40 -32.66405 140.97293 35483 ft 419 kts 262°
2026-05-06 10:40 -32.66844 140.93865 35669 ft 419 kts 263°
2026-05-06 10:41 -32.67282 140.90449 35818 ft 420 kts 263°
2026-05-06 10:41 -32.67715 140.87057 36026 ft 419 kts 263°
2026-05-06 10:41 -32.68151 140.83641 36280 ft 417 kts 263°
2026-05-06 10:41 -32.68585 140.80230 36489 ft 416 kts 263°
2026-05-06 10:42 -32.69012 140.76861 36634 ft 417 kts 263°
2026-05-06 10:42 -32.69442 140.73463 36808 ft 416 kts 263°
2026-05-06 10:42 -32.69872 140.70065 37019 ft 415 kts 263°
2026-05-06 10:42 -32.70301 140.66664 37221 ft 414 kts 263°
2026-05-06 10:43 -32.70727 140.63278 37366 ft 414 kts 263°
2026-05-06 10:43 -32.71146 140.59937 37510 ft 414 kts 263°
2026-05-06 10:43 -32.71570 140.56553 37712 ft 413 kts 263°
2026-05-06 10:44 -32.72412 140.49805 38015 ft 413 kts 263°
2026-05-06 10:44 -32.72833 140.46422 38151 ft 411 kts 263°
2026-05-06 10:44 -32.73243 140.43119 38242 ft 410 kts 263°
2026-05-06 10:45 -32.74075 140.36387 38268 ft 413 kts 263°
2026-05-06 10:45 -32.74911 140.29598 38279 ft 417 kts 263°
2026-05-06 10:46 -32.75745 140.22791 38272 ft 420 kts 263°
2026-05-06 10:46 -32.76587 140.15890 38275 ft 422 kts 263°
2026-05-06 10:47 -32.77428 140.08972 38266 ft 422 kts 263°
2026-05-06 10:47 -32.78254 140.02147 38270 ft 413 kts 263°
2026-05-06 10:48 -32.79063 139.95428 38277 ft 411 kts 263°
2026-05-06 10:48 -32.79871 139.88671 38279 ft 410 kts 263°
2026-05-06 10:49 -32.80673 139.81947 38287 ft 410 kts 263°
2026-05-06 10:49 -32.81465 139.75270 38287 ft 411 kts 263°
2026-05-06 10:50 -32.81997 139.70763 38288 ft 411 kts 263°
2026-05-06 10:50 -32.82658 139.65152 38290 ft 412 kts 263°
2026-05-06 10:51 -32.83587 139.57229 38287 ft 414 kts 263°
2026-05-06 10:51 -32.84511 139.49297 38300 ft 416 kts 263°
2026-05-06 10:52 -32.85433 139.41345 38299 ft 418 kts 263°
2026-05-06 10:52 -32.86226 139.34468 38300 ft 419 kts 263°
2026-05-06 10:53 -32.87011 139.27622 38304 ft 420 kts 263°
2026-05-06 10:53 -32.87799 139.20725 38305 ft 421 kts 263°
2026-05-06 10:54 -32.88584 139.13813 38311 ft 421 kts 263°
2026-05-06 10:54 -32.89359 139.06959 38308 ft 421 kts 263°
2026-05-06 10:55 -32.90135 139.00051 38301 ft 420 kts 264°
2026-05-06 10:55 -32.90908 138.93151 38309 ft 419 kts 264°
2026-05-06 10:56 -32.91669 138.86310 38314 ft 419 kts 264°
2026-05-06 10:56 -32.92304 138.80582 38318 ft 418 kts 264°
2026-05-06 10:57 -32.93184 138.72596 38314 ft 417 kts 264°
2026-05-06 10:57 -32.93809 138.66897 38319 ft 417 kts 264°
2026-05-06 10:58 -32.94682 138.58895 38319 ft 416 kts 264°
2026-05-06 10:58 -32.95420 138.52091 38314 ft 416 kts 264°
2026-05-06 10:59 -32.96035 138.46397 38320 ft 417 kts 264°
2026-05-06 10:59 -32.96773 138.39532 38325 ft 417 kts 264°
2026-05-06 11:00 -32.97627 138.31539 38324 ft 418 kts 264°
2026-05-06 11:00 -32.98234 138.25825 38329 ft 418 kts 264°
2026-05-06 11:01 -32.99083 138.17801 38325 ft 419 kts 264°
2026-05-06 11:01 -32.99687 138.12056 38330 ft 420 kts 264°
2026-05-06 11:02 -33.00411 138.05138 38325 ft 421 kts 264°
2026-05-06 11:02 -33.01250 137.97067 38322 ft 421 kts 264°
2026-05-06 11:03 -33.01968 137.90128 38322 ft 421 kts 264°
2026-05-06 11:03 -33.02676 137.83246 38321 ft 419 kts 264°
2026-05-06 11:04 -33.03380 137.76364 38322 ft 417 kts 264°
2026-05-06 11:04 -33.03961 137.70652 38332 ft 416 kts 264°
2026-05-06 11:05 -33.04768 137.62675 38335 ft 415 kts 264°
2026-05-06 11:05 -33.05453 137.55877 38338 ft 415 kts 264°
2026-05-06 11:06 -33.05828 137.50167 38333 ft 414 kts 272°
2026-05-06 11:06 -33.05672 137.42148 38338 ft 415 kts 272°
2026-05-06 11:07 -33.05602 137.39158 38343 ft 415 kts 272°
2026-05-06 11:08 -33.05559 137.37247 38347 ft 416 kts 272°
2026-05-06 11:09 -33.05413 137.30335 38344 ft 417 kts 272°
2026-05-06 11:09 -33.05277 137.23413 38345 ft 418 kts 272°
2026-05-06 11:10 -33.05143 137.16519 38344 ft 419 kts 272°
2026-05-06 11:10 -33.05005 137.09565 38348 ft 419 kts 272°
2026-05-06 11:11 -33.04863 137.02601 38348 ft 420 kts 272°
2026-05-06 11:11 -33.04716 136.95625 38347 ft 420 kts 272°
2026-05-06 11:12 -33.04566 136.88709 38347 ft 419 kts 272°
2026-05-06 11:12 -33.04412 136.81746 38350 ft 419 kts 272°
2026-05-06 11:13 -33.04255 136.74850 38355 ft 418 kts 272°
2026-05-06 11:13 -33.04094 136.67921 38352 ft 417 kts 272°
2026-05-06 11:14 -33.03930 136.61010 38357 ft 416 kts 272°
2026-05-06 11:14 -33.03762 136.54134 38359 ft 416 kts 272°
2026-05-06 11:15 -33.03590 136.47239 38361 ft 415 kts 272°
2026-05-06 11:15 -33.03416 136.40398 38362 ft 415 kts 272°
2026-05-06 11:16 -33.03236 136.33503 38365 ft 414 kts 272°
2026-05-06 11:16 -33.03055 136.26673 38368 ft 414 kts 272°
2026-05-06 11:17 -33.02962 136.23231 38364 ft 415 kts 272°
2026-05-06 11:17 -33.02678 136.12906 38371 ft 415 kts 272°
2026-05-06 11:18 -33.02479 136.05844 38365 ft 415 kts 272°
2026-05-06 11:18 -33.02313 136.00077 38371 ft 416 kts 272°